Location: Dvor Trebu?a
(48.6131°N, 19.0994°E)
Time: 17:03:01
(UTC+00:00)

Daily predictions for brighter satellites

Satellite Brightness Start Highest point End
(mag) Time Altitude Azimuth Time Altitude Azimuth Time Altitude Azimuth
NOSS 3-1 (C) 4.4 18:37:16 10° NW 18:44:19 57° NE 18:52:39 10° ESE
Meteor 1-26 Rocket 4.4 18:41:55 10° N 18:47:48 68° ENE 18:53:27 10° SSE
Nadezhda 4 Rocket 4.2 18:43:49 10° S 18:50:02 84° W 18:56:22 10° N
Cosmos 1371 Rocket 4.3 18:45:54 10° NNW 18:51:15 61° ENE 18:56:32 10° SE
GP-B 4.1 18:47:22 10° NNE 18:51:17 30° E 18:55:11 10° SE
Cosmos 1680 Rocket 3.6 18:46:47 10° S 18:51:56 57° ESE 18:57:04 10° NNE
IGS 5A 3.7 18:48:11 10° SSE 18:52:13 53° ENE 18:56:16 10° N
Cosmos 2112 Rocket 4.2 18:48:40 10° S 18:53:45 51° ESE 18:58:50 10° NNE
Cosmos 1151 Rocket 3.5 18:49:58 10° N 18:54:12 45° ENE 18:58:24 10° SSE
BREEZE-M DEB (TANK) 3.4 18:55:57 10° SW 18:59:23 60° SE 19:10:54 10° ENE
Okean 3 Rocket 4.2 18:55:39 10° SSE 18:59:48 38° E 19:04:00 10° NNE
Cosmos 1271 Rocket 2.9 18:56:00 10° NNW 19:00:01 81° WSW 19:04:01 10° S
ATLAS 3B R/B 4.5 18:55:58 10° WNW 19:01:54 29° WSW 19:08:02 10° S
Cosmos 2237 4.3 18:56:16 10° NNW 19:02:01 84° ENE 19:07:45 10° SSE
USA 229 DEB 4.5 18:55:28 10° NW 19:02:25 48° NE 19:09:47 10° ESE
Cosmos 1428 Rocket 4.5 19:00:00 10° S 19:06:02 66° E 19:12:06 10° NNE
COSMOS 2428 3.9 19:01:40 10° NNW 19:06:41 31° NE 19:11:41 10° ESE
ERS-2 2.2 19:03:14 10° NNE 19:06:51 56° ESE 19:10:25 10° S
COSMOS 2455 3.7 19:04:09 10° SSE 19:09:11 29° ESE 19:14:13 10° NE
GEOS 3 Rocket 3.6 19:04:40 10° NE 19:09:54 74° SE 19:15:00 10° SW
COSMOS 2487 4.3 19:12:29 12° ESE 19:13:32 14° E 19:15:18 10° ENE
Meteor 2-3 Rocket 3.9 19:09:20 10° SSW 19:15:02 83° W 19:20:51 10° N
Cosmos 220 Rocket 4.3 19:12:28 10° NNW 19:16:49 68° WSW 19:21:11 10° SSE
Cosmos 292 Rocket 4.0 19:12:32 10° NNW 19:17:15 56° ENE 19:21:28 13° SE
Cosmos 2360 Rocket 2.2 19:11:39 10° NNW 19:17:20 85° ENE 19:22:50 11° SSE
SAR-Lupe-4 4.3 19:14:05 10° N 19:17:38 57° WNW 19:21:09 10° SSW
NOSS 2-1 (C) 2.7 19:14:35 10° SW 19:17:52 77° SE 19:21:15 10° NE
Ariane Rocket 3.5 19:13:20 10° S 19:18:20 61° WSW 19:23:23 10° NNW
Terra 3.4 19:15:37 10° ESE 19:19:08 22° ENE 19:22:44 10° NNE
Cosmos 1328 Rocket 3.6 19:15:56 10° N 19:20:22 63° ENE 19:24:39 10° SSE
NOSS 3-1 (A) 4.4 19:16:00 10° NW 19:23:08 59° NE 19:30:51 13° ESE
Cosmos 1174 3.0 19:21:39 10° NW 19:24:39 88° WSW 19:26:57 17° SE
SPOT 3 Rocket 3.6 19:19:46 10° SSE 19:24:59 86° ENE 19:30:14 10° NNW
NOSS 2-1 (D) 2.8 19:22:23 10° SW 19:25:40 88° NW 19:29:04 10° NE
Cosmos 1766 Rocket 3.5 19:22:11 10° S 19:26:31 73° E 19:30:53 10° NNE
Cosmos 2151 4.5 19:24:44 10° SW 19:28:45 39° WNW 19:32:49 10° N
Cosmos 1624 Rocket 4.1 19:24:04 10° NNW 19:29:18 77° WSW 19:34:25 11° SSE
Meteor 2-6 Rocket 4.2 19:23:56 10° N 19:29:20 68° ENE 19:34:17 12° SSE
Cosmos 2084 4.1 19:27:52 10° WSW 19:31:53 56° NW 19:36:01 10° NE
Gblst 52 Del rocket 4.4 19:26:07 10° WNW 19:31:59 88° NNE 19:37:59 13° ESE
Cosmos 1553 Rocket 4.0 19:25:55 10° N 19:32:01 72° E 19:37:59 11° SSE
Resurs 01 Rocket 2.1 19:28:35 10° S 19:32:59 62° WSW 19:37:26 10° NNW
Cosmos 1420 Rocket 4.0 19:29:02 10° NNW 19:34:24 82° ENE 19:38:52 15° SSE
Cosmos 1812 2.7 19:36:55 10° N 19:40:47 87° WSW 19:44:03 14° S
Meteor 2-21 4.4 19:36:31 10° S 19:42:38 71° E 19:48:44 10° NNE
Cosmos 1782 4.0 19:39:04 10° NNW 19:42:52 42° W 19:46:38 10° SSW
Landsat 7 4.4 19:38:46 10° S 19:43:26 56° W 19:48:09 10° NNW
Cosmos 2285 Rocket 4.4 19:37:31 10° NNW 19:43:38 49° ENE 19:48:12 18° SE
ERS-1 Rocket 3.4 19:40:14 17° SE 19:43:47 47° ENE 19:48:36 10° N
Cosmos 1862 3.2 19:40:38 10° S 19:44:34 68° E 19:48:32 10° NNE
Cosmos 2228 Rocket 4.2 19:43:14 10° N 19:47:09 30° ENE 19:49:24 19° ESE
Cosmos 1833 4.2 19:42:48 10° SSW 19:48:35 79° ESE 19:54:22 10° NNE
SL-27 R/B 2.9 19:45:48 10° SSW 19:49:22 66° WNW 19:52:58 10° NNE
Cosmos 2297 Rocket 4.1 19:49:40 10° E 19:49:51 10° E 19:50:51 10° E
Cosmos 2333 Rocket 2.2 19:46:51 10° NNW 19:52:33 81° ENE 19:56:33 20° SSE
Cosmos 2322 Rocket 3.6 19:49:16 10° NW 19:54:12 32° WSW 19:59:06 10° SSW
BREEZE-M DEB (TANK) 4.0 19:51:18 10° W 19:54:24 29° SSW 19:58:28 17° SSE
Cosmos 2237 Rocket 3.6 19:49:49 10° NNW 19:54:42 28° NE 19:58:46 13° E
JB-3 4.3 19:50:38 10° NNE 19:54:44 75° ESE 19:58:22 12° S
USA 234 4.4 19:49:11 10° ENE 19:55:17 43° N 20:01:23 10° WNW
SPOT 5 2.9 19:52:44 22° SE 19:55:25 55° ENE 19:59:52 10° N
Cosmos 2322 3.7 19:49:50 10° NNW 19:55:36 81° ENE 19:59:34 21° SSE
ARIANE 5 R/B 2.6 19:54:19 21° SSE 19:57:12 69° ENE 20:01:37 10° N
Cosmos 1452 Rocket 3.5 19:55:36 10° NNW 20:00:52 72° ENE 20:04:10 23° SE
BREEZE-M R/B 3.3 19:57:55 10° SSW 20:01:53 28° SSE 20:02:47 25° ESE
Cosmos 1500 Rocket 3.8 20:03:07 23° SSE 20:05:38 52° E 20:09:59 10° NNE
S3M 4.0 20:00:08 10° N 20:06:35 86° E 20:11:31 18° S
Cosmos 2219 Rocket 2.1 20:01:04 10° NNW 20:06:42 85° ENE 20:10:11 24° SSE
Meteor 2-16 Rocket 4.4 20:06:02 13° S 20:11:33 76° E 20:17:39 10° NNE
ATLAS 5 CENTAUR R/B 2.3 20:07:44 10° NW 20:13:13 83° NE 20:17:08 25° SE
Meteor 1-27 Rocket 3.7 20:09:41 10° N 20:15:25 77° ENE 20:18:59 25° SSE
Cosmos 1331 Rocket 4.5 20:11:45 10° NNW 20:16:50 49° ENE 20:19:26 26° ESE
Sich 1 3.9 20:16:31 28° ESE 20:17:29 31° E 20:21:17 10° NNE
Spot 2 Rocket 3.8 20:14:03 19° S 20:17:43 66° WSW 20:22:49 10° NNW
Cosmos 1110 Rocket 4.3 20:12:58 10° NNW 20:18:14 55° ENE 20:20:55 28° SE
USA 245 4.3 20:16:53 16° SSW 20:19:54 41° W 20:23:15 10° NNW
Cosmos 1408 Rocket 3.9 20:17:00 11° SSW 20:21:10 62° WNW 20:25:27 10° N
Cosmos 1655 Rocket 4.0 20:19:07 13° S 20:24:53 89° E 20:31:20 10° N
CZ-2C R/B 4.4 20:20:56 10° N 20:25:19 53° WNW 20:29:38 10° SSW
SL-16 R/B 4.1 20:22:37 10° N 20:26:52 21° NE 20:31:06 10° E
USA 102 4.2 20:26:31 35° NE 20:27:19 38° NNE 20:34:19 10° NNW
Cosmos 1743 Rocket 3.5 20:25:39 25° S 20:28:13 85° E 20:32:39 10° N
CARTOSAT-1 4.5 20:29:08 20° SSW 20:31:50 44° W 20:35:59 10° NNW
Cosmos 494 Rocket 4.0 20:31:20 29° S 20:33:47 56° ESE 20:38:49 10° NNE
Cosmos 1633 Rocket 4.4 20:33:47 23° E 20:34:03 23° E 20:37:29 10° NE
Lacrosse 5 2.1 20:33:36 21° SSW 20:36:36 43° SE 20:41:24 10° ENE
IRIDIUM 104 4.3 20:31:27 10° N 20:36:41 68° E 20:38:56 34° SSE
APEX 4.5 20:38:57 25° S 20:42:22 58° ESE 20:49:01 10° NE
Cosmos 1666 Rocket 4.3 20:44:02 34° ESE 20:44:33 35° E 20:48:37 10° NNE
IRIDIUM 114 4.3 20:40:34 10° N 20:45:49 81° E 20:48:03 36° S
COSMOS 2487 3.5 20:45:41 17° SW 20:47:57 43° WNW 20:51:13 10° N
Cosmos 1602 4.0 20:47:47 47° ESE 20:47:59 48° E 20:51:41 10° NNE
CZ-4C R/B 4.0 20:42:12 10° NW 20:48:24 37° NNE 20:55:40 10° E
CZ-4B DEB 4.1 20:50:28 74° SW 20:50:36 76° W 20:53:46 10° NNW
Cosmos 468 4.5 20:47:13 19° SSW 20:50:58 87° WNW 20:56:15 10° NNE
COSMOS 2428 3.1 20:45:44 10° NW 20:51:18 57° WSW 20:53:52 31° S
Meteor 1-25 Rocket 4.2 20:51:21 36° SSE 20:53:38 65° E 20:59:08 10° NNE
USA 229 DEB 4.2 20:46:29 10° NW 20:53:39 58° WSW 20:57:36 29° S
USA 229 4.2 20:46:35 10° NW 20:53:45 58° WSW 20:57:42 29° S
COSMOS 2455 3.3 20:48:47 10° SW 20:54:44 62° NW 21:00:44 10° NNE
IRIDIUM 103 4.3 20:49:44 10° N 20:54:59 85° W 20:57:11 36° S
Terra 2.2 20:54:31 32° SSW 20:56:31 56° W 21:01:13 10° NNW
COBE Rocket 4.3 20:57:21 37° ESE 20:58:35 47° ENE 21:03:09 10° N
Cosmos 2360 Rocket 4.4 20:57:07 10° WNW 21:00:33 17° W 21:04:00 10° SW
Cosmos 2084 Rocket 3.5 20:57:33 10° NW 21:01:43 63° SW 21:02:26 53° S
USA 267 4.4 20:56:57 10° ENE 21:00:52 23° ESE 21:00:52 23° ESE
Cosmos 1048 Rocket 4.2 20:59:48 17° SW 21:03:48 67° WNW 21:08:55 10° NNE
Meteor 1-18 Rocket 4.4 20:59:05 10° N 21:04:52 64° ENE 21:06:50 40° SE
Cosmos 2219 3.8 21:06:24 35° ESE 21:07:00 36° ESE 21:12:12 10° NE
Cosmos 1862 Rocket 3.9 21:03:24 10° N 21:07:37 48° ENE 21:08:11 45° E
Spot 4 4.3 21:13:02 41° ESE 21:14:11 50° ENE 21:18:52 10° N
Cosmos 1302 Rocket 4.0 21:10:38 10° NNW 21:15:53 76° ENE 21:17:19 49° SE
Cosmos 1707 Rocket 3.5 21:11:29 10° NNW 21:15:54 81° W 21:16:40 59° S
TSX-5 3.9 21:15:29 65° S 21:15:59 74° ESE 21:20:59 10° NE
H-2A R/B 3.5 21:11:49 10° N 21:16:02 77° WNW 21:17:03 50° SSW
Meteor 1-19 Rocket 4.1 21:11:14 10° NNW 21:16:49 89° W 21:18:30 46° S
Okean 1 3.1 21:13:00 10° N 21:17:02 88° W 21:17:20 76° S
Cosmos 1980 3.6 21:12:09 10° NNW 21:17:50 84° WSW 21:19:35 47° SSE
NOSS 2-2 (D) 4.3 21:14:37 10° NW 21:19:50 89° SW 21:22:28 40° SE
Cosmos 1500 3.2 21:24:25 70° ENE 21:24:25 70° ENE 21:28:05 10° NNE
Cosmos 1269 Rocket 4.0 21:30:12 54° SSE 21:31:05 64° ESE 21:36:21 10° NNE
Okean 1-7 4.1 21:28:37 10° N 21:32:26 31° ENE 21:32:43 31° E
Cosmos 2297 Rocket 2.1 21:31:26 50° S 21:32:46 66° ESE 21:38:24 10° NNE
BREEZE-M DEB (TANK) 3.9 21:32:30 10° W 21:34:37 21° WSW 21:34:37 21° WSW
NOSS 0 Rocket 4.5 21:30:01 10° NW 21:35:58 47° WSW 21:37:53 36° SSW
Cosmos 2333 Rocket 4.2 21:32:26 10° WNW 21:36:07 18° W 21:38:33 14° SW
USA 234 3.8 21:31:19 10° E 21:37:40 56° NNE 21:44:02 10° NW
Cosmos 2237 Rocket 2.3 21:33:34 10° NNW 21:39:12 64° WSW 21:40:34 48° SSW
Cosmos 2227 Rocket 2.2 21:44:50 55° SSE 21:45:45 63° ESE 21:51:22 10° NNE
ALOS 2 2.8 21:45:45 55° E 21:46:06 57° ENE 21:50:24 10° N
Cosmos 2219 Rocket 4.1 21:46:29 10° WNW 21:49:53 17° W 21:51:54 14° WSW
Cosmos 2263 Rocket 4.1 21:51:47 15° E 21:51:47 15° E 21:54:32 10° ENE
Cosmos 1745 Rocket 4.0 21:50:35 49° SSE 21:52:19 74° E 21:58:39 10° NNE
Meteor 1-14 Rocket 4.1 21:51:39 53° S 21:53:03 90° ESE 21:58:48 10° NNE
ATLAS 5 CENTAUR R/B 3.8 21:53:03 10° WNW 21:57:34 24° WSW 21:58:38 22° SW
BREEZE-M DEB (TANK) 4.0 21:48:42 10° WSW 22:00:37 62° S 22:02:13 41° ESE
Cosmos 1536 4.1 22:05:02 32° ENE 22:05:02 32° ENE 22:08:03 10° NNE
Nadezhda 1 Rocket 4.0 21:58:26 10° NNW 22:04:51 78° W 22:06:40 50° S
Okean 3 4.2 22:05:13 10° N 22:09:16 42° ENE 22:09:16 42° ENE
Cosmos 1633 Rocket 4.0 22:10:51 35° W 22:11:38 38° WNW 22:15:43 10° N
Cosmos 44 3.7 22:06:33 10° NW 22:11:49 61° NE 22:13:03 47° E
SL-16 R/B 2.1 22:06:06 10° NNW 22:11:49 88° ENE 22:12:56 60° SSE
Cosmos 1470 Rocket 3.7 22:14:08 60° W 22:14:19 60° WNW 22:18:37 10° N
Cosmos 1666 3.2 22:15:50 54° NW 22:15:50 54° NW 22:19:19 10° N
Lacrosse 5 2.5 22:14:33 10° WSW 22:19:32 55° NNW 22:24:32 10° NE
Cosmos 1933 Rocket 3.5 22:20:15 80° W 22:20:17 80° W 22:24:45 10° N
Timation 1 Rocket 4.2 22:21:27 52° SSW 22:23:02 89° WNW 22:29:06 10° NNE
Cosmos 192 4.2 22:19:10 10° NNW 22:24:08 77° ENE 22:24:35 70° ESE
Cosmos 1743 4.1 22:28:33 31° ENE 22:28:33 31° ENE 22:31:12 10° NNE
Cosmos 1340 Rocket 3.2 22:28:39 56° NW 22:28:39 56° NW 22:32:14 10° N
Cosmos 2251 Rocket 3.5 22:34:43 63° SE 22:35:02 64° ESE 22:40:20 10° NNE
CZ-4C R/B 2.9 22:30:33 10° NW 22:37:44 85° SW 22:41:11 39° SE
Cosmos 1943 4.1 22:34:36 10° NNW 22:40:05 44° NE 22:42:41 27° ESE
CZ-3B R/B 4.2 22:37:02 10° WNW 22:39:48 17° W 22:39:48 17° W
Timation 2 Rocket 4.0 22:39:27 45° SW 22:41:24 74° WNW 22:47:39 10° NNE
Cosmos 1992 Rocket 4.4 22:38:03 10° NNW 22:43:04 48° WSW 22:43:15 47° WSW
ATLAS CENTAUR R/B 3.0 22:44:52 24° ENE 22:44:52 24° ENE 22:46:54 10° NE
Cosmos 1544 3.9 22:44:14 48° N 22:44:14 48° N 22:46:55 10° N
Cosmos 2242 Rocket 4.1 22:40:27 10° NNW 22:44:34 50° W 22:44:34 50° W
USA 267 3.1 22:39:13 10° ENE 22:45:48 75° SE 22:48:10 43° SW
Cosmos 2219 4.1 22:48:17 27° WSW 22:51:04 45° NW 22:56:36 10° NNE
Cosmos 1066 Rocket 4.4 22:48:41 10° NNW 22:54:29 63° W 22:55:26 55° SW
Cosmos 407 Rocket 4.1 22:54:30 42° ESE 22:54:40 42° ESE 22:59:35 10° NE
ATLAS 2AS CENTAUR R/B 4.3 22:55:13 10° NW 23:02:04 36° NNE 23:08:28 10° E
Cosmos 2082 3.9 23:01:12 49° WSW 23:02:41 69° WNW 23:08:26 10° NNE
NOSS 3-3 (A) 3.9 23:02:53 56° SSE 23:03:38 60° ESE 23:10:03 10° NE
NOSS 3-3 (C) 3.9 23:03:01 55° SSE 23:03:44 59° ESE 23:10:08 10° NE
Meteor 1-11 Rocket 3.9 23:05:19 50° WSW 23:06:25 59° WNW 23:11:55 10° N
Cosmos 1707 4.5 23:04:24 10° NNE 23:07:34 24° ENE 23:07:54 24° E
Cosmos 1733 Rocket 3.5 23:09:45 51° E 23:09:45 51° E 23:14:01 10° NNE
Okean 1-7 4.4 23:06:18 10° NNW 23:09:33 27° W 23:09:33 27° W
Cosmos 2181 Rocket 4.0 23:05:12 10° NNW 23:11:26 66° W 23:12:46 52° SSW
Cosmos 1975 4.0 23:12:19 35° E 23:12:19 35° E 23:15:46 10° NNE
Geosat 4.3 23:13:03 43° ESE 23:14:32 64° NE 23:19:32 10° NNW
Cosmos 1140 Rocket 3.6 23:16:10 57° SE 23:16:35 59° ESE 23:21:45 10° NNE
Cosmos 2297 Rocket 3.9 23:13:12 13° W 23:17:18 27° NW 23:22:06 10° NNE
SL-16 R/B 3.8 23:15:35 15° ESE 23:20:00 35° ENE 23:25:33 10° N
USA 234 3.1 23:18:04 40° SSE 23:20:36 70° SW 23:27:10 10° WNW
Meteor 1-23 Rocket 4.4 23:15:04 10° NNW 23:20:42 58° W 23:21:35 52° SW
Cosmos 2221 Rocket 3.5 23:17:03 10° N 23:21:38 86° W 23:21:41 86° WSW
ADEOS Rocket 4.4 23:20:29 12° ESE 23:24:34 28° ENE 23:29:18 10° N
Cosmos 614 Rocket 4.3 23:23:41 48° WSW 23:24:44 58° WNW 23:29:55 10° NNE
Cosmos 1461 3.8 23:27:18 40° W 23:28:12 46° NW 23:32:26 10° NNE
Cosmos 2227 Rocket 3.8 23:26:37 15° W 23:30:16 28° NW 23:35:07 10° NNE
Meteor 2-12 Rocket 4.4 23:29:20 54° S 23:30:52 88° E 23:37:04 10° N
SL-24 R/B - RUBIN 2 3.8 23:28:04 10° NW 23:32:45 62° W 23:32:45 62° W
Cosmos 1356 Rocket 4.0 23:33:53 44° E 23:33:53 44° E 23:37:29 10° NNE
Nadezhda 3 Rocket 4.1 23:27:37 10° N 23:34:01 75° E 23:36:10 43° SSE
Cosmos 2263 Rocket 2.1 23:33:28 60° SSW 23:34:35 85° ESE 23:40:19 10° NNE
Cosmos 2344 3.6 23:34:40 43° S 23:37:02 63° ESE 23:44:44 10° NE
Cosmos 1900 4.4 23:37:19 58° SE 23:37:30 59° ESE 23:42:22 10° NE
Cosmos 1603 3.6 23:34:50 10° NNW 23:40:28 74° WSW 23:41:32 58° S
PSLV R/B 4.2 23:37:22 10° N 23:41:57 49° WNW 23:42:34 46° W
Okean 2 3.4 23:38:31 10° N 23:42:43 76° E 23:42:44 76° E
Cosmos 1842 3.8 23:41:02 10° NNW 23:44:12 50° NW 23:44:12 50° NW
ASTEX 1 3.3 23:46:47 64° SW 23:47:17 70° W 23:52:15 10° N
ARGOS Delta rocket 3.4 23:43:54 10° N 23:48:26 89° WNW 23:48:43 79° SSW
Thor Agena Rocket 4.3 23:46:39 10° N 23:51:22 41° WNW 23:52:34 35° W
Meteor 2-9 Rocket 4.0 23:50:41 58° SSW 23:51:45 81° WNW 23:57:16 10° N
YAOGAN 11 4.0 23:52:25 74° S 23:52:49 88° WSW 23:57:19 10° NNW
SL-16 R/B 4.0 23:51:47 10° WNW 23:54:47 16° W 23:54:47 16° W
